This is the latest recevied weather packets stored in our database for station/object AE5EW. If no packets are shown the sender has not sent any weather packets the latest 10 day(s).
| Time | Temp. | Humidity | Pressure | Rain* | Wind** | Luminosity | Snow |
|---|---|---|---|---|---|---|---|
| 1788018949 | 30° C | 77% | 1020.5 hPa | 0 mm | - | - | - |
| 1788018644 | 30° C | 75% | 1020.5 hPa | 0 mm | - | - | - |
| 1788018343 | 28.89° C | 81% | 1020.3 hPa | 0 mm | - | - | - |
| 1788018038 | 28.89° C | 81% | 1020.5 hPa | 0 mm | - | - | - |
| 1788017735 | 28.33° C | 80% | 1020.5 hPa | 0 mm | - | - | - |
| 1788017432 | 28.33° C | 83% | 1020.6 hPa | 0 mm | - | - | - |
| 1788017128 | 27.78° C | 82% | 1020.5 hPa | 0 mm | - | - | - |
| 1788016827 | 28.33° C | 81% | 1020.3 hPa | 0 mm | - | - | - |
| 1788016526 | 28.33° C | 82% | 1020.3 hPa | 0 mm | - | - | - |
| 1788016220 | 29.44° C | 79% | 1020.4 hPa | 0 mm | - | - | - |
| 1788015920 | 29.44° C | 81% | 1020.3 hPa | 0 mm | - | - | - |
| 1788015615 | 28.89° C | 83% | 1020.2 hPa | 0 mm | - | - | - |
| 1788015314 | 28.89° C | 80% | 1020.3 hPa | 0 mm | - | - | - |
| 1788015014 | 28.89° C | 83% | 1020.3 hPa | 0 mm | - | - | - |
| 1788014714 | 28.33° C | 84% | 1020.2 hPa | 0 mm | - | - | - |
| 1788014409 | 27.78° C | 85% | 1020.3 hPa | 0 mm | - | - | - |
| 1788014104 | 28.33° C | 85% | 1020.2 hPa | 0 mm | - | - | - |
| 1788013803 | 27.78° C | 87% | 1020.2 hPa | 0 mm | - | - | - |
| 1788013503 | 27.22° C | 86% | 1020.3 hPa | 0 mm | - | - | - |
| 1788013197 | 27.78° C | 86% | 1020.4 hPa | 0 mm | - | - | - |
| 1788012897 | 27.78° C | 87% | 1020.4 hPa | 0 mm | - | - | - |
| 1788012597 | 27.22° C | 89% | 1020.3 hPa | 0 mm | - | - | - |
| 1788012292 | 26.67° C | 89% | 1020.4 hPa | 0 mm | - | - | - |
| 1788011991 | 27.22° C | 88% | 1020.4 hPa | 0 mm | - | - | - |
| 1788011690 | 26.67° C | 89% | 1020.3 hPa | 0 mm | - | - | - |
* Rain latest hour (hover to see other rain measurements)
** Current wind speed in m/s (hover to see current wind gust speed)